Flag for Argentina Weather past 2 weeks in Buenos Aires, Argentina

Now
61 °F

Passing clouds.


Feels Like: 61 °F
Forecast: 54 / 67 °F
Wind: 10 mph from Northeast

Location: Buenos Aires Airport

Current Time: Sep 17, 2014 at 9:26:31 AM

Latest Report: Sep 17, 2014 at 9:00 AM


Visibility: N/A

Pressure: 30.12 "Hg

Humidity: 63%

Dew point: 48 °F

Location of Buenos AiresLocation

Historic Weather in Buenos Aires — Graph

°F

Buenos Aires temperature yesterday

Maximum temperature yesterday: 63 °F (at 2:00 PM)
Minimum temperature yesterday: 50 °F (at 4:00 AM)
Average temperature yesterday: 58 °F

Past Weeks' High & Low Weather Summary

 TemperatureHumidityPressure
High70 °F (Sep 7, 3:00 PM)100% (Sep 6, 8:00 AM)30.18 "Hg (Sep 6, 8:00 AM)
Low50 °F (Sep 10, 7:00 AM)24% (Sep 11, 1:00 PM)29.53 "Hg (Sep 9, 5:00 AM)
Average61 °F70%29.99 "Hg
* Reported Sep 2 8:00 AM — Sep 17 8:00 AM, Buenos Aires, Weather by CustomWeather, © 2014

Note: Actual official high and low records may vary slightly from our data, if they occured in-between our weather recording intervals... More about our weather records

Advertising

Buenos Aires weather history for previous 24 hours

 ConditionsComfort  
Time TempWeatherWind HumidityBarometerVisibility
8:00 AM
Sep 17
59 °FPassing clouds.9 mph68%30.09 "HgN/A
7:00 AM59 °FSunny.9 mph63%30.09 "Hg10 mi
6:00 AM59 °FPassing clouds.9 mph68%30.09 "HgN/A
5:00 AM59 °FClear.9 mph68%30.07 "Hg10 mi
4:00 AM59 °FClear.9 mph68%30.07 "Hg10 mi
3:00 AM59 °FClear.8 mph82%30.07 "Hg10 mi
1:00 AM59 °FClear.8 mph82%30.07 "Hg10 mi
12:00 AM59 °FClear.8 mph82%30.07 "Hg10 mi
11:00 PM
Sep 16
59 °FClear.7 mph77%30.09 "Hg10 mi
10:00 PM59 °FClear.7 mph77%30.09 "Hg10 mi
9:00 PM61 °FClear.8 mph72%30.07 "Hg10 mi
8:00 PM61 °FClear.8 mph68%30.07 "Hg10 mi
7:00 PM61 °FClear.8 mph68%30.07 "Hg10 mi
6:00 PM63 °FClear.6 mph64%30.04 "Hg10 mi
5:00 PM63 °FSunny.3 mph59%30.04 "Hg10 mi
4:00 PM63 °FSunny.5 mph56%30.04 "Hg10 mi
3:00 PM63 °FSunny.5 mph49%30.04 "Hg10 mi
2:00 PM63 °FSunny.6 mph49%30.07 "Hg10 mi
1:00 PM61 °FSunny.7 mph55%30.09 "Hg10 mi
12:00 PM61 °FSunny.3 mph63%30.09 "Hg10 mi
11:00 AM61 °FSunny.5 mph63%30.09 "Hg10 mi
10:00 AM61 °FPassing clouds.5 mph68%30.09 "HgN/A
9:00 AM61 °FPassing clouds.7 mph52%30.09 "HgN/A
Weather by CustomWeather, © 2014

See weather overviewHow to use our weather pages